Tracking 19792 objects as of 15-Jul-2019
HD Live streaming from Space Station
objects crossing your sky now

COSMOS 2144

Track COSMOS 2144 now!
10-day predictions
COSMOS 2144 is classified as:


NORAD ID: 21300
Int'l Code: 1991-033B
Perigee: 1,415.9 km
Apogee: 1,425.2 km
Inclination: 82.6 °
Period: 114.1 minutes
Semi major axis: 7791 km
RCS: 1.1059 m2 (large)
Launch date: May 16, 1991
Source: Commonwealth of Independent States (former USSR) (CIS)
Launch site: PLESETSK MISSILE AND SPACE COMPLEX (PKMTR)
aabbcc
Your satellite tracking list
Your tracking list is empty




NASA's NSSDC Master Catalog

Two Line Element Set (TLE):
1 21300U 91033B   19195.90776108 -.00000003  00000-0 -76199-4 0  9996
2 21300  82.5782 143.5636 0005940  80.2144 279.9618 12.62320016297648
Source of the keplerian elements: AFSPC